EDW22WA LSZH-EGLL

Flight info

Callsign EDW22WA
Flight time N/A
Altitude 40000
Route VEBIT T10 TORPA DCT REKLA DCT RLP DCT ROTSI DCT KOTUN DCT NINAL DCT ABNUR DCT DIMAL DCT ALESO
Aircraft A359/H-SDE2E3GHIJ3J4J5LM1ORWXY/LB1D1

Departure

Time 2026-05-04 15:17
Airport Zürich Airport (LSZH)

Arrival

Time N/A
Airport London Heathrow Airport (EGLL)
Time Latitude Longitude Altitude Speed Heading
2026-05-04 14:54 47.46188 8.55610 1403 ft 0 kts 185°
2026-05-04 15:06 47.46201 8.55611 1411 ft 2 kts 168°
2026-05-04 15:06 47.46210 8.55603 1406 ft 2 kts 102°
2026-05-04 15:07 47.46211 8.55588 1413 ft 0 kts 97°
2026-05-04 15:10 47.46211 8.55589 1403 ft 0 kts 95°
2026-05-04 15:10 47.46214 8.55614 1410 ft 11 kts 84°
2026-05-04 15:10 47.46229 8.55873 1407 ft 14 kts 93°
2026-05-04 15:11 47.46207 8.55992 1412 ft 8 kts 133°
2026-05-04 15:11 47.46165 8.56055 1416 ft 9 kts 136°
2026-05-04 15:11 47.46117 8.56125 1415 ft 11 kts 136°
2026-05-04 15:11 47.46058 8.56214 1415 ft 11 kts 123°
2026-05-04 15:12 47.46018 8.56266 1416 ft 8 kts 143°
2026-05-04 15:12 47.45971 8.56321 1418 ft 10 kts 140°
2026-05-04 15:12 47.45911 8.56397 1413 ft 13 kts 138°
2026-05-04 15:12 47.45832 8.56505 1414 ft 18 kts 136°
2026-05-04 15:13 47.45798 8.56621 1413 ft 12 kts 102°
2026-05-04 15:13 47.45784 8.56763 1404 ft 16 kts 96°
2026-05-04 15:13 47.45773 8.56935 1403 ft 15 kts 95°
2026-05-04 15:13 47.45759 8.56996 1409 ft 0 kts 131°
2026-05-04 15:14 47.45752 8.57005 1406 ft 3 kts 140°
2026-05-04 15:15 47.45728 8.57022 1410 ft 3 kts 170°
2026-05-04 15:15 47.45702 8.57023 1410 ft 4 kts 184°
2026-05-04 15:15 47.45681 8.57012 1411 ft 1 kts 210°
2026-05-04 15:16 47.45671 8.56980 1410 ft 0 kts 265°
2026-05-04 15:16 47.45671 8.56972 1408 ft 8 kts 265°
2026-05-04 15:16 47.45820 8.54936 1481 ft 177 kts 278°
2026-05-04 15:17 47.45935 8.53005 2267 ft 203 kts 275°
2026-05-04 15:17 47.45913 8.48320 4303 ft 250 kts 250°
2026-05-04 15:17 47.44938 8.46138 5135 ft 260 kts 227°
2026-05-04 15:18 47.43743 8.44098 5979 ft 268 kts 230°
2026-05-04 15:18 47.42575 8.41920 6671 ft 270 kts 231°
2026-05-04 15:18 47.41451 8.39696 7284 ft 271 kts 232°
2026-05-04 15:19 47.39248 8.35146 8517 ft 276 kts 234°
2026-05-04 15:19 47.38267 8.32686 9174 ft 278 kts 239°
2026-05-04 15:19 47.36454 8.27577 10442 ft 293 kts 240°
2026-05-04 15:20 47.35470 8.24806 11085 ft 313 kts 240°
2026-05-04 15:20 47.34433 8.21877 11699 ft 327 kts 240°
2026-05-04 15:20 47.33378 8.18905 12353 ft 333 kts 240°
2026-05-04 15:20 47.32299 8.15868 13005 ft 336 kts 240°
2026-05-04 15:21 47.31215 8.12820 13649 ft 338 kts 241°
2026-05-04 15:21 47.30114 8.09716 14264 ft 340 kts 240°
2026-05-04 15:21 47.27943 8.03524 15469 ft 345 kts 244°
2026-05-04 15:22 47.27233 8.00125 16095 ft 350 kts 259°
2026-05-04 15:22 47.27162 7.96527 16742 ft 354 kts 270°
2026-05-04 15:22 47.27750 7.89262 18059 ft 361 kts 276°
2026-05-04 15:23 47.28161 7.85588 18677 ft 364 kts 276°
2026-05-04 15:23 47.28574 7.81927 19276 ft 367 kts 276°
2026-05-04 15:23 47.28977 7.78199 19879 ft 369 kts 276°
2026-05-04 15:23 47.29363 7.74432 20503 ft 372 kts 275°
2026-05-04 15:24 47.30093 7.66844 21789 ft 378 kts 274°
2026-05-04 15:24 47.31273 7.59199 23127 ft 388 kts 282°
2026-05-04 15:25 47.32046 7.55420 23786 ft 391 kts 283°
2026-05-04 15:25 47.32876 7.51567 24370 ft 395 kts 284°
2026-05-04 15:25 47.33730 7.47691 24971 ft 398 kts 284°
2026-05-04 15:26 47.35450 7.39883 26196 ft 405 kts 283°
2026-05-04 15:26 47.36319 7.35892 26827 ft 408 kts 283°
2026-05-04 15:26 47.38047 7.27892 28143 ft 414 kts 283°
2026-05-04 15:27 47.38926 7.23801 28815 ft 415 kts 282°
2026-05-04 15:27 47.40621 7.15697 30180 ft 413 kts 278°
2026-05-04 15:28 47.41920 7.07449 31439 ft 409 kts 277°
2026-05-04 15:28 47.42523 7.03389 32070 ft 406 kts 277°
2026-05-04 15:28 47.43705 6.95277 33399 ft 400 kts 276°
2026-05-04 15:29 47.44281 6.91305 34078 ft 395 kts 276°
2026-05-04 15:30 47.46521 6.75851 36538 ft 371 kts 277°
2026-05-04 15:30 47.47974 6.65100 38429 ft 341 kts 272°
2026-05-04 15:31 47.48525 6.58233 39007 ft 336 kts 272°
2026-05-04 15:31 47.48773 6.54785 39167 ft 336 kts 272°
2026-05-04 15:32 47.49490 6.44486 39555 ft 338 kts 272°
2026-05-04 15:32 47.49976 6.37542 39762 ft 341 kts 272°
2026-05-04 15:33 47.50468 6.30531 39957 ft 344 kts 272°
2026-05-04 15:34 47.51212 6.19784 39983 ft 357 kts 272°
2026-05-04 15:34 47.51975 6.08620 40022 ft 372 kts 272°
2026-05-04 15:35 47.52500 6.00862 40023 ft 384 kts 272°
2026-05-04 15:35 47.52767 5.96881 40026 ft 390 kts 272°
2026-05-04 15:36 47.54826 5.84898 40021 ft 420 kts 292°
2026-05-04 15:36 47.56301 5.81083 40021 ft 432 kts 300°
2026-05-04 15:36 47.58169 5.77556 40020 ft 442 kts 307°
2026-05-04 15:37 47.62365 5.70681 40023 ft 458 kts 309°
2026-05-04 15:37 47.66785 5.63674 40012 ft 471 kts 309°
2026-05-04 15:38 47.71242 5.56551 40010 ft 471 kts 309°
2026-05-04 15:38 47.75673 5.49383 40003 ft 471 kts 308°
2026-05-04 15:39 47.80090 5.42191 40000 ft 471 kts 308°
2026-05-04 15:40 47.86701 5.31385 39992 ft 470 kts 308°
2026-05-04 15:40 47.91101 5.24170 39995 ft 472 kts 308°
2026-05-04 15:41 47.95536 5.16883 39982 ft 472 kts 308°
2026-05-04 15:41 47.99930 5.09639 39980 ft 473 kts 308°
2026-05-04 15:41 48.02101 5.06024 40569 ft 442 kts 324°
2026-05-04 15:42 48.04288 5.02955 41242 ft 418 kts 338°
2026-05-04 15:42 48.06809 5.01067 40958 ft 396 kts 19°
2026-05-04 15:42 48.08833 5.01093 36946 ft 179 kts 312°
2026-05-04 15:42 48.09805 5.01285 30376 ft 97 kts 213°
2026-05-04 15:43 48.10315 5.01457 23615 ft 77 kts 161°
2026-05-04 15:43 48.10623 5.01603 17375 ft 65 kts 123°
2026-05-04 15:43 48.10825 5.01757 11806 ft 55 kts 112°
2026-05-04 15:43 48.10968 5.01891 6695 ft 50 kts 118°
2026-05-04 15:44 48.11078 5.01975 1781 ft 45 kts 124°
2026-05-04 15:44 48.11160 5.02051 1181 ft 0 kts 204°
2026-05-04 15:44 48.11115 5.01848 1113 ft 75 kts 279°
2026-05-04 15:44 48.11630 5.01450 1115 ft 74 kts 11°
2026-05-04 15:45 48.11781 5.01596 1050 ft 0 kts 87°